Time,TemperatureF,DewpointF,PressureIn,WindDirection,WindDirectionDegrees,WindSpeedMPH,WindSpeedGustMPH,Humidity,HourlyPrecipIn,Conditions,Clouds,dailyrainin,SoftwareType,DateUTC
2013-07-30 00:10:00,65.6,61.0,30.05,North,11,1.0,2.0,85,0.00,,,0.98,weatherlink.com 1.10,2013-07-30 04:10:00,
2013-07-30 00:25:00,65.7,61.0,30.05,NNE,14,2.0,2.0,84,0.00,,,0.00,weatherlink.com 1.10,2013-07-30 04:25:00,
2013-07-30 00:40:00,65.4,61.0,30.05,NNW,347,1.0,2.0,85,0.00,,,0.00,weatherlink.com 1.10,2013-07-30 04:40:00,
2013-07-30 00:55:00,65.3,60.0,30.05,NNW,348,0.0,1.0,84,0.00,,,0.00,weatherlink.com 1.10,2013-07-30 04:55:00,
2013-07-30 01:10:00,65.1,60.0,30.05,NNW,346,0.0,1.0,84,0.00,,,0.00,weatherlink.com 1.10,2013-07-30 05:10:00,
2013-07-30 01:25:00,65.2,60.0,30.05,NNW,346,0.0,0.0,84,0.00,,,0.00,weatherlink.com 1.10,2013-07-30 05:25:00,
2013-07-30 01:40:00,64.8,61.0,30.05,WNW,301,0.0,0.0,87,0.00,,,0.00,weatherlink.com 1.10,2013-07-30 05:40:00,
2013-07-30 01:55:00,63.7,60.0,30.05,WNW,301,0.0,0.0,88,0.00,,,0.00,weatherlink.com 1.10,2013-07-30 05:55:00,
2013-07-30 02:10:00,62.9,60.0,30.05,WNW,302,0.0,0.0,90,0.00,,,0.00,weatherlink.com 1.10,2013-07-30 06:10:00,
2013-07-30 02:25:00,62.7,60.0,30.05,WNW,302,0.0,0.0,92,0.00,,,0.00,weatherlink.com 1.10,2013-07-30 06:25:00,
2013-07-30 02:40:00,62.1,60.0,30.05,WNW,298,0.0,0.0,93,0.00,,,0.00,weatherlink.com 1.10,2013-07-30 06:40:00,
2013-07-30 02:55:00,61.9,60.0,30.05,WNW,298,0.0,0.0,93,0.00,,,0.00,weatherlink.com 1.10,2013-07-30 06:55:00,
2013-07-30 03:10:00,62.0,60.0,30.05,WSW,240,0.0,0.0,94,0.00,,,0.00,weatherlink.com 1.10,2013-07-30 07:10:00,
2013-07-30 03:25:00,61.9,60.0,30.05,WSW,242,0.0,0.0,94,0.00,,,0.00,weatherlink.com 1.10,2013-07-30 07:25:00,
2013-07-30 03:40:00,61.1,59.0,30.05,West,275,0.0,0.0,94,0.00,,,0.00,weatherlink.com 1.10,2013-07-30 07:40:00,
2013-07-30 03:55:00,60.7,59.0,30.05,West,276,0.0,0.0,95,0.00,,,0.00,weatherlink.com 1.10,2013-07-30 07:55:00,
2013-07-30 04:10:00,60.7,59.0,30.05,West,275,0.0,0.0,95,0.00,,,0.00,weatherlink.com 1.10,2013-07-30 08:10:00,
2013-07-30 04:26:00,60.2,59.0,30.06,NW,305,0.0,1.0,95,0.00,,,0.00,weatherlink.com 1.10,2013-07-30 08:26:00,
2013-07-30 04:40:00,60.4,59.0,30.06,NW,304,0.0,0.0,95,0.00,,,0.00,weatherlink.com 1.10,2013-07-30 08:40:00,
2013-07-30 04:55:00,60.2,59.0,30.06,NW,305,0.0,1.0,95,0.00,,,0.00,weatherlink.com 1.10,2013-07-30 08:55:00,
2013-07-30 05:10:00,59.7,59.0,30.06,NW,305,0.0,0.0,96,0.00,,,0.00,weatherlink.com 1.10,2013-07-30 09:10:00,
2013-07-30 05:25:00,59.7,59.0,30.07,NW,325,0.0,0.0,96,0.00,,,0.00,weatherlink.com 1.10,2013-07-30 09:25:00,
2013-07-30 05:40:00,59.6,59.0,30.07,NW,325,0.0,0.0,96,0.00,,,0.00,weatherlink.com 1.10,2013-07-30 09:40:00,
2013-07-30 05:55:00,59.0,58.0,30.07,NW,325,0.0,0.0,96,0.00,,,0.00,weatherlink.com 1.10,2013-07-30 09:55:00,
2013-07-30 06:10:00,59.3,58.0,30.07,NW,325,0.0,0.0,96,0.00,,,0.00,weatherlink.com 1.10,2013-07-30 10:10:00,
2013-07-30 06:25:00,60.7,59.0,30.08,NW,325,0.0,0.0,95,0.00,,,0.00,weatherlink.com 1.10,2013-07-30 10:25:00,
2013-07-30 06:40:00,61.8,60.0,30.08,NW,325,0.0,0.0,92,0.00,,,0.00,weatherlink.com 1.10,2013-07-30 10:40:00,
2013-07-30 06:55:00,63.5,60.0,30.08,NW,325,0.0,0.0,89,0.00,,,0.00,weatherlink.com 1.10,2013-07-30 10:55:00,
2013-07-30 07:10:00,64.4,61.0,30.09,NNW,327,0.0,1.0,87,0.00,,,0.00,weatherlink.com 1.10,2013-07-30 11:10:00,
2013-07-30 07:26:00,64.9,61.0,30.09,NNW,330,0.0,2.0,86,0.00,,,0.00,weatherlink.com 1.10,2013-07-30 11:26:00,
2013-07-30 07:41:00,66.6,61.0,30.09,North,352,0.0,1.0,83,0.00,,,0.00,weatherlink.com 1.10,2013-07-30 11:41:00,
2013-07-30 07:56:00,68.1,62.0,30.10,SSW,213,0.0,3.0,81,0.00,,,0.00,weatherlink.com 1.10,2013-07-30 11:56:00,
2013-07-30 08:11:00,68.6,61.0,30.10,SW,223,0.0,4.0,77,0.00,,,0.00,weatherlink.com 1.10,2013-07-30 12:11:00,
2013-07-30 08:26:00,68.9,61.0,30.11,West,273,1.0,4.0,76,0.00,,,0.00,weatherlink.com 1.10,2013-07-30 12:26:00,
2013-07-30 08:41:00,69.2,61.0,30.11,SW,216,2.0,3.0,74,0.00,,,0.00,weatherlink.com 1.10,2013-07-30 12:41:00,
2013-07-30 08:56:00,69.9,61.0,30.11,SSW,202,0.0,7.0,74,0.00,,,0.00,weatherlink.com 1.10,2013-07-30 12:56:00,
2013-07-30 09:11:00,70.4,60.0,30.11,WSW,251,0.0,4.0,69,0.00,,,0.00,weatherlink.com 1.10,2013-07-30 13:11:00,
2013-07-30 09:26:00,70.8,59.0,30.11,WSW,258,0.0,3.0,67,0.00,,,0.00,weatherlink.com 1.10,2013-07-30 13:26:00,
2013-07-30 09:41:00,70.5,59.0,30.11,WSW,242,0.0,3.0,66,0.00,,,0.00,weatherlink.com 1.10,2013-07-30 13:41:00,
2013-07-30 09:56:00,71.8,60.0,30.11,SSW,195,0.0,3.0,66,0.00,,,0.00,weatherlink.com 1.10,2013-07-30 13:56:00,
2013-07-30 10:26:00,73.3,59.0,30.11,WSW,238,0.0,2.0,61,0.00,,,0.00,weatherlink.com 1.10,2013-07-30 14:26:00,
2013-07-30 10:41:00,72.5,57.0,30.11,West,266,0.0,2.0,58,0.00,,,0.00,weatherlink.com 1.10,2013-07-30 14:41:00,
2013-07-30 10:56:00,73.3,57.0,30.11,South,191,5.0,5.0,57,0.00,,,0.00,weatherlink.com 1.10,2013-07-30 14:56:00,
2013-07-30 11:11:00,72.8,58.0,30.11,WSW,243,0.0,5.0,60,0.00,,,0.00,weatherlink.com 1.10,2013-07-30 15:11:00,
2013-07-30 11:26:00,73.6,58.0,30.10,WNW,290,2.0,4.0,58,0.00,,,0.00,weatherlink.com 1.10,2013-07-30 15:26:00,
2013-07-30 11:41:00,74.6,60.0,30.10,NE,52,1.0,4.0,60,0.00,,,0.00,weatherlink.com 1.10,2013-07-30 15:41:00,
2013-07-30 11:56:00,75.6,59.0,30.09,SSW,202,2.0,5.0,57,0.00,,,0.00,weatherlink.com 1.10,2013-07-30 15:56:00,
2013-07-30 12:11:00,76.1,60.0,30.09,SE,134,5.0,6.0,57,0.00,,,0.00,weatherlink.com 1.10,2013-07-30 16:11:00,
2013-07-30 12:26:00,76.1,59.0,30.09,SW,219,3.0,6.0,56,0.00,,,0.00,weatherlink.com 1.10,2013-07-30 16:26:00,
2013-07-30 12:41:00,76.8,59.0,30.09,WSW,249,0.0,4.0,55,0.00,,,0.00,weatherlink.com 1.10,2013-07-30 16:41:00,
2013-07-30 12:56:00,76.2,59.0,30.08,SSW,205,1.0,3.0,56,0.00,,,0.00,weatherlink.com 1.10,2013-07-30 16:56:00,
2013-07-30 13:11:00,76.2,60.0,30.08,SW,229,0.0,3.0,58,0.00,,,0.00,weatherlink.com 1.10,2013-07-30 17:11:00,
2013-07-30 13:26:00,76.6,59.0,30.08,SW,223,2.0,5.0,55,0.00,,,0.00,weatherlink.com 1.10,2013-07-30 17:26:00,
2013-07-30 13:41:00,76.8,58.0,30.08,West,259,0.0,6.0,53,0.00,,,0.00,weatherlink.com 1.10,2013-07-30 17:41:00,
2013-07-30 13:56:00,76.1,58.0,30.07,SW,222,1.0,6.0,54,0.00,,,0.00,weatherlink.com 1.10,2013-07-30 17:56:00,
2013-07-30 14:11:00,75.8,58.0,30.07,WSW,250,1.0,3.0,54,0.00,,,0.00,weatherlink.com 1.10,2013-07-30 18:11:00,
2013-07-30 14:26:00,75.9,59.0,30.07,SW,223,0.0,4.0,56,0.00,,,0.00,weatherlink.com 1.10,2013-07-30 18:26:00,
2013-07-30 14:41:00,77.2,59.0,30.06,SSW,211,1.0,2.0,54,0.00,,,0.00,weatherlink.com 1.10,2013-07-30 18:41:00,
2013-07-30 14:57:00,76.7,59.0,30.06,WSW,241,0.0,4.0,54,0.00,,,0.00,weatherlink.com 1.10,2013-07-30 18:57:00,
2013-07-30 15:11:00,76.7,59.0,30.06,WSW,240,0.0,2.0,55,0.00,,,0.00,weatherlink.com 1.10,2013-07-30 19:11:00,
2013-07-30 15:26:00,77.1,59.0,30.05,WNW,294,4.0,5.0,53,0.00,,,0.00,weatherlink.com 1.10,2013-07-30 19:26:00,
2013-07-30 15:56:00,78.8,60.0,30.05,SW,233,1.0,8.0,52,0.00,,,0.00,weatherlink.com 1.10,2013-07-30 19:56:00,
2013-07-30 16:11:00,79.8,58.0,30.04,SW,222,0.0,6.0,48,0.00,,,0.00,weatherlink.com 1.10,2013-07-30 20:11:00,
2013-07-30 16:27:00,79.5,59.0,30.04,West,261,0.0,4.0,49,0.00,,,0.00,weatherlink.com 1.10,2013-07-30 20:27:00,
2013-07-30 16:42:00,78.7,58.0,30.04,NNW,327,0.0,3.0,50,0.00,,,0.00,weatherlink.com 1.10,2013-07-30 20:42:00,
2013-07-30 16:57:00,79.9,58.0,30.03,NW,304,0.0,3.0,47,0.00,,,0.00,weatherlink.com 1.10,2013-07-30 20:57:00,
2013-07-30 17:12:00,79.8,59.0,30.03,WSW,257,1.0,5.0,50,0.00,,,0.00,weatherlink.com 1.10,2013-07-30 21:12:00,
2013-07-30 17:27:00,79.4,59.0,30.03,WNW,290,0.0,5.0,49,0.00,,,0.00,weatherlink.com 1.10,2013-07-30 21:27:00,
2013-07-30 17:42:00,79.4,59.0,30.03,WNW,290,0.0,3.0,49,0.00,,,0.00,weatherlink.com 1.10,2013-07-30 21:42:00,
2013-07-30 17:57:00,78.9,59.0,30.03,NW,313,0.0,1.0,50,0.00,,,0.00,weatherlink.com 1.10,2013-07-30 21:57:00,
2013-07-30 18:12:00,77.7,58.0,30.03,NNW,333,0.0,3.0,51,0.00,,,0.00,weatherlink.com 1.10,2013-07-30 22:12:00,
2013-07-30 18:27:00,78.2,57.0,30.04,NNW,338,0.0,3.0,49,0.00,,,0.00,weatherlink.com 1.10,2013-07-30 22:27:00,
2013-07-30 18:42:00,77.9,58.0,30.04,NW,320,0.0,0.0,50,0.00,,,0.00,weatherlink.com 1.10,2013-07-30 22:42:00,
2013-07-30 18:57:00,77.0,58.0,30.04,NW,319,0.0,0.0,52,0.00,,,0.00,weatherlink.com 1.10,2013-07-30 22:57:00,
2013-07-30 19:12:00,76.2,58.0,30.05,NW,319,0.0,0.0,53,0.00,,,0.00,weatherlink.com 1.10,2013-07-30 23:12:00,
2013-07-30 19:27:00,75.9,59.0,30.04,West,275,0.0,1.0,57,0.00,,,0.00,weatherlink.com 1.10,2013-07-30 23:27:00,
2013-07-30 19:42:00,75.3,59.0,30.05,West,275,0.0,1.0,57,0.00,,,0.00,weatherlink.com 1.10,2013-07-30 23:42:00,
2013-07-30 19:57:00,74.1,62.0,30.04,WNW,295,0.0,0.0,65,0.00,,,0.00,weatherlink.com 1.10,2013-07-30 23:57:00,
2013-07-30 20:12:00,73.8,60.0,30.05,WNW,293,0.0,0.0,62,0.00,,,0.00,weatherlink.com 1.10,2013-07-31 00:12:00,
2013-07-30 20:27:00,73.6,61.0,30.05,WNW,294,0.0,0.0,64,0.00,,,0.00,weatherlink.com 1.10,2013-07-31 00:27:00,
2013-07-30 20:42:00,73.2,59.0,30.06,NW,306,0.0,0.0,62,0.00,,,0.00,weatherlink.com 1.10,2013-07-31 00:42:00,
2013-07-30 20:57:00,72.6,60.0,30.06,NW,304,0.0,0.0,64,0.00,,,0.00,weatherlink.com 1.10,2013-07-31 00:57:00,
2013-07-30 21:12:00,72.0,60.0,30.07,NW,305,0.0,0.0,66,0.00,,,0.00,weatherlink.com 1.10,2013-07-31 01:12:00,
2013-07-30 21:27:00,70.6,62.0,30.07,NW,305,0.0,0.0,73,0.00,,,0.00,weatherlink.com 1.10,2013-07-31 01:27:00,
2013-07-30 21:42:00,68.2,62.0,30.07,NW,305,0.0,0.0,80,0.00,,,0.00,weatherlink.com 1.10,2013-07-31 01:42:00,
2013-07-30 21:57:00,67.0,61.0,30.08,NW,304,0.0,0.0,82,0.00,,,0.00,weatherlink.com 1.10,2013-07-31 01:57:00,
2013-07-30 22:12:00,66.2,61.0,30.08,NW,304,0.0,0.0,84,0.00,,,0.00,weatherlink.com 1.10,2013-07-31 02:12:00,
2013-07-30 22:27:00,65.0,61.0,30.09,NW,304,0.0,0.0,87,0.00,,,0.00,weatherlink.com 1.10,2013-07-31 02:27:00,
2013-07-30 22:42:00,64.1,61.0,30.09,NW,304,0.0,0.0,88,0.00,,,0.00,weatherlink.com 1.10,2013-07-31 02:42:00,
2013-07-30 22:57:00,63.4,60.0,30.09,NW,304,0.0,0.0,89,0.00,,,0.00,weatherlink.com 1.10,2013-07-31 02:57:00,
2013-07-30 23:12:00,62.8,60.0,30.09,NW,304,0.0,0.0,90,0.00,,,0.00,weatherlink.com 1.10,2013-07-31 03:12:00,
2013-07-30 23:27:00,62.4,60.0,30.09,NW,304,0.0,0.0,90,0.00,,,0.00,weatherlink.com 1.10,2013-07-31 03:27:00,
2013-07-30 23:42:00,62.1,60.0,30.09,NW,304,0.0,0.0,91,0.00,,,0.00,weatherlink.com 1.10,2013-07-31 03:42:00,